• In Portugal
  • List of Countries
  • For 7 days
  • Water Temperature
  • Satellite Maps
  • Weather Map
  • Weather Widgets
  • user-avatar
    Login

    Hourly Weather Korçe

    Today, 15 August, Wednesday

    Time Temperature Precipitation Wind Pressure Humidity
    00:00 +18°C° 0.2 mm 1 mps 666 mmHg 74%
    01:00 +18°C° 0 mm 1 mps 666 mmHg 74%
    02:00 +18°C° 0.1 mm 1 mps 666 mmHg 74%
    03:00 +18°C° 0.1 mm 1 mps 665 mmHg 75%
    04:00 +16°C° 0.1 mm 1 mps 665 mmHg 76%
    05:00 +19°C° 0 mm 1 mps 666 mmHg 71%
    06:00 +20°C° 0 mm 1 mps 666 mmHg 67%
    07:00 +22°C° 0 mm 1 mps 667 mmHg 61%
    08:00 +23°C° 0.3 mm 1 mps 667 mmHg 55%
    09:00 +25°C° 0.3 mm 1 mps 667 mmHg 49%
    10:00 +26°C° 0.3 mm 1 mps 668 mmHg 43%
    11:00 +26°C° 0.1 mm 1 mps 668 mmHg 43%
    12:00 +27°C° 0.1 mm 1 mps 667 mmHg 43%
    13:00 +26°C° 0 mm 2 mps 668 mmHg 45%
    14:00 +26°C° 0 mm 2 mps 668 mmHg 48%
    15:00 +25°C° 0 mm 1 mps 667 mmHg 50%
    16:00 +25°C° 0 mm 1 mps 667 mmHg 52%
    17:00 +23°C° 0.3 mm 1 mps 667 mmHg 57%
    18:00 +22°C° 0.3 mm 1 mps 667 mmHg 61%
    19:00 +21°C° 0.3 mm 1 mps 666 mmHg 65%
    20:00 +20°C° 1.1 mm 1 mps 666 mmHg 69%
    21:00 +19°C° 1.1 mm 1 mps 666 mmHg 73%
    22:00 +18°C° 1.1 mm 1 mps 666 mmHg 77%
    23:00 +18°C° 0.7 mm 1 mps 666 mmHg 78%

    Tomorrow, 16 August, Thursday

    Time Temperature Precipitation Wind Pressure Humidity
    00:00 +18°C° 0.7 mm 1 mps 666 mmHg 79%
    01:00 +16°C° 0.7 mm 1 mps 666 mmHg 79%
    02:00 +16°C° 0.3 mm 1 mps 666 mmHg 79%
    03:00 +16°C° 0.3 mm 1 mps 666 mmHg 79%
    04:00 +16°C° 0.3 mm 1 mps 666 mmHg 79%
    05:00 +18°C° 0.3 mm 1 mps 666 mmHg 76%
    06:00 +19°C° 0.3 mm 1 mps 666 mmHg 72%
    07:00 +20°C° 0.3 mm 1 mps 667 mmHg 69%
    08:00 +21°C° 0.6 mm 1 mps 667 mmHg 63%
    09:00 +23°C° 0.6 mm 1 mps 667 mmHg 56%
    10:00 +24°C° 0.6 mm 1 mps 668 mmHg 50%
    11:00 +24°C° 0.4 mm 1 mps 668 mmHg 49%
    12:00 +25°C° 0.4 mm 2 mps 668 mmHg 49%
    13:00 +25°C° 0.4 mm 2 mps 668 mmHg 49%
    14:00 +25°C° 0.4 mm 2 mps 668 mmHg 50%
    15:00 +24°C° 0.4 mm 1 mps 667 mmHg 51%
    16:00 +24°C° 0.4 mm 1 mps 667 mmHg 53%
    17:00 +22°C° 0.7 mm 1 mps 667 mmHg 59%
    18:00 +21°C° 0.7 mm 1 mps 667 mmHg 65%
    19:00 +19°C° 0.7 mm 1 mps 666 mmHg 71%
    20:00 +19°C° 0.1 mm 1 mps 667 mmHg 72%
    21:00 +18°C° 0.1 mm 1 mps 667 mmHg 73%
    22:00 +18°C° 0.1 mm 1 mps 667 mmHg 74%
    23:00 +16°C° 0 mm 1 mps 667 mmHg 74%

    Day after tomorrow, 17 August, Friday

    Time Temperature Precipitation Wind Pressure Humidity
    00:00 +16°C° 0 mm 1 mps 666 mmHg 74%
    01:00 +16°C° 0 mm 1 mps 666 mmHg 75%
    02:00 +15°C° 0 mm 1 mps 666 mmHg 74%
    03:00 +15°C° 0 mm 1 mps 666 mmHg 74%
    04:00 +15°C° 0 mm 1 mps 666 mmHg 74%
    05:00 +16°C° 0 mm 1 mps 666 mmHg 70%
    06:00 +19°C° 0 mm 1 mps 667 mmHg 66%
    07:00 +20°C° 0 mm 1 mps 667 mmHg 61%
    08:00 +22°C° 0 mm 1 mps 668 mmHg 55%
    09:00 +24°C° 0 mm 1 mps 668 mmHg 48%
    10:00 +26°C° 0 mm 1 mps 669 mmHg 41%
    11:00 +27°C° 0 mm 1 mps 669 mmHg 39%
    12:00 +27°C° 0 mm 1 mps 669 mmHg 38%
    13:00 +28°C° 0 mm 1 mps 669 mmHg 36%
    14:00 +27°C° 0 mm 2 mps 669 mmHg 40%
    15:00 +26°C° 0 mm 2 mps 668 mmHg 43%
    16:00 +25°C° 0 mm 2 mps 668 mmHg 47%
    17:00 +24°C° 0 mm 2 mps 668 mmHg 52%
    18:00 +22°C° 0 mm 1 mps 667 mmHg 58%
    19:00 +21°C° 0 mm 1 mps 667 mmHg 64%
    20:00 +20°C° 0.3 mm 1 mps 667 mmHg 67%
    21:00 +19°C° 0.3 mm 1 mps 667 mmHg 70%
    22:00 +18°C° 0.3 mm 1 mps 667 mmHg 73%
    23:00 +18°C° 0.1 mm 1 mps 667 mmHg 73%

    18 August, Saturday

    Time Temperature Precipitation Wind Pressure Humidity
    00:00 +18°C° 0.1 mm 1 mps 667 mmHg 74%
    01:00 +18°C° 0.1 mm 1 mps 667 mmHg 75%
    02:00 +18°C° 0 mm 1 mps 667 mmHg 75%
    03:00 +16°C° 0 mm 1 mps 667 mmHg 75%
    04:00 +16°C° 0 mm 1 mps 666 mmHg 74%
    05:00 +19°C° 0.1 mm 1 mps 667 mmHg 70%
    06:00 +20°C° 0.1 mm 1 mps 667 mmHg 65%
    07:00 +22°C° 0.1 mm 1 mps 668 mmHg 60%
    08:00 +23°C° 0.2 mm 1 mps 668 mmHg 54%
    09:00 +25°C° 0.2 mm 1 mps 669 mmHg 48%
    10:00 +27°C° 0.2 mm 1 mps 670 mmHg 42%
    11:00 +27°C° 0 mm 1 mps 669 mmHg 42%
    12:00 +27°C° 0 mm 1 mps 669 mmHg 43%
    13:00 +27°C° 0 mm 1 mps 669 mmHg 43%
    14:00 +26°C° 0.3 mm 2 mps 669 mmHg 47%
    15:00 +25°C° 0.3 mm 2 mps 668 mmHg 52%
    16:00 +24°C° 0.3 mm 2 mps 668 mmHg 56%
    17:00 +23°C° 1.7 mm 2 mps 668 mmHg 61%
    18:00 +20°C° 1.7 mm 2 mps 668 mmHg 66%
    19:00 +20°C° 1.7 mm 1 mps 668 mmHg 72%
    20:00 +20°C° 1.1 mm 1 mps 668 mmHg 74%
    21:00 +19°C° 1.1 mm 1 mps 668 mmHg 77%
    22:00 +19°C° 1.1 mm 1 mps 668 mmHg 79%
    23:00 +18°C° 0.1 mm 1 mps 668 mmHg 79%

    19 August, Sunday

    Time Temperature Precipitation Wind Pressure Humidity
    00:00 +18°C° 0.1 mm 1 mps 668 mmHg 78%
    01:00 +18°C° 0.1 mm 1 mps 667 mmHg 77%
    02:00 +16°C° 0 mm 1 mps 667 mmHg 77%
    03:00 +16°C° 0 mm 1 mps 667 mmHg 76%
    04:00 +16°C° 0 mm 1 mps 667 mmHg 76%
    05:00 +18°C° 0 mm 1 mps 667 mmHg 72%
    06:00 +19°C° 0 mm 2 mps 668 mmHg 69%
    07:00 +20°C° 0 mm 2 mps 668 mmHg 65%
    08:00 +23°C° 0 mm 2 mps 669 mmHg 57%
    09:00 +25°C° 0 mm 2 mps 669 mmHg 50%
    10:00 +26°C° 0 mm 2 mps 670 mmHg 42%
    11:00 +27°C° 0 mm 2 mps 670 mmHg 40%
    12:00 +28°C° 0 mm 2 mps 670 mmHg 39%
    13:00 +28°C° 0 mm 2 mps 670 mmHg 37%
    14:00 +28°C° 0 mm 2 mps 669 mmHg 40%
    15:00 +27°C° 0 mm 2 mps 669 mmHg 43%
    16:00 +26°C° 0 mm 2 mps 669 mmHg 46%
    17:00 +25°C° 0 mm 2 mps 668 mmHg 49%
    18:00 +23°C° 0 mm 1 mps 668 mmHg 53%
    19:00 +22°C° 0 mm 1 mps 668 mmHg 56%
    20:00 +21°C° 0 mm 1 mps 668 mmHg 57%
    21:00 +20°C° 0 mm 1 mps 668 mmHg 57%
    22:00 +20°C° 0 mm 1 mps 668 mmHg 58%
    23:00 +19°C° 0 mm 1 mps 668 mmHg 57%

    20 August, Monday

    Time Temperature Precipitation Wind Pressure Humidity
    00:00 +19°C° 0 mm 1 mps 668 mmHg 57%
    01:00 +19°C° 0 mm 1 mps 667 mmHg 56%
    02:00 +17°C° 0 mm 2 mps 667 mmHg 57%
    03:00 +17°C° 0 mm 2 mps 667 mmHg 57%
    04:00 +17°C° 0 mm 2 mps 667 mmHg 58%
    05:00 +18°C° 0 mm 2 mps 667 mmHg 56%
    06:00 +19°C° 0 mm 2 mps 668 mmHg 55%
    07:00 +21°C° 0 mm 2 mps 668 mmHg 54%
    08:00 +23°C° 0 mm 2 mps 669 mmHg 49%
    09:00 +25°C° 0 mm 2 mps 669 mmHg 43%
    10:00 +27°C° 0 mm 2 mps 670 mmHg 37%
    11:00 +27°C° 0 mm 2 mps 670 mmHg 36%
    12:00 +28°C° 0 mm 2 mps 670 mmHg 35%
    13:00 +28°C° 0 mm 2 mps 670 mmHg 34%
    14:00 +27°C° 0 mm 2 mps 669 mmHg 37%
    15:00 +27°C° 0 mm 2 mps 669 mmHg 40%
    16:00 +26°C° 0 mm 2 mps 669 mmHg 43%
    17:00 +25°C° 0 mm 2 mps 669 mmHg 46%
    18:00 +23°C° 0 mm 1 mps 668 mmHg 50%
    19:00 +21°C° 0 mm 1 mps 668 mmHg 54%
    20:00 +21°C° 0 mm 1 mps 668 mmHg 54%
    21:00 +20°C° 0 mm 1 mps 668 mmHg 54%
    22:00 +20°C° 0 mm 1 mps 668 mmHg 55%
    23:00 +19°C° 0 mm 1 mps 668 mmHg 55%
    Show more